TimeCDT,TemperatureF,Dew PointF,Humidity,Sea Level PressureIn,VisibilityMPH,Wind Direction,Wind SpeedMPH,Gust SpeedMPH,PrecipitationIn,Events,Conditions,WindDirDegrees,DateUTC
12:53 AM,70.0,59.0,68,29.99,10.0,NE,5.8,-,N/A,,Mostly Cloudy,40,2013-07-18 05:53:00
1:53 AM,69.1,59.0,70,29.95,10.0,ENE,8.1,-,N/A,,Mostly Cloudy,60,2013-07-18 06:53:00
2:53 AM,66.9,57.9,73,29.95,10.0,NNW,10.4,-,N/A,,Mostly Cloudy,330,2013-07-18 07:53:00
3:53 AM,64.9,61.0,87,29.90,10.0,NE,11.5,-,N/A,,Clear,40,2013-07-18 08:53:00
4:53 AM,66.0,61.0,84,29.87,10.0,ENE,6.9,-,N/A,,Scattered Clouds,60,2013-07-18 09:53:00
5:53 AM,69.1,62.1,78,29.85,10.0,East,8.1,-,N/A,,Overcast,100,2013-07-18 10:53:00
6:53 AM,66.9,63.0,87,29.85,10.0,NNW,5.8,-,N/A,,Overcast,340,2013-07-18 11:53:00
7:53 AM,66.9,64.0,90,29.82,10.0,NNE,4.6,-,N/A,,Mostly Cloudy,30,2013-07-18 12:53:00
8:11 AM,68.0,64.4,88,29.83,10.0,North,11.5,-,N/A,,Overcast,360,2013-07-18 13:11:00
8:53 AM,66.0,63.0,90,29.82,10.0,East,11.5,-,N/A,,Mostly Cloudy,100,2013-07-18 13:53:00
9:53 AM,72.0,64.9,78,29.80,10.0,East,5.8,-,N/A,,Mostly Cloudy,80,2013-07-18 14:53:00
10:53 AM,75.9,66.0,71,29.76,10.0,Calm,Calm,-,N/A,,Scattered Clouds,0,2013-07-18 15:53:00
11:53 AM,79.0,69.1,72,29.74,10.0,South,4.6,-,N/A,,Scattered Clouds,190,2013-07-18 16:53:00
12:53 PM,82.0,70.0,67,29.72,10.0,South,10.4,-,N/A,,Mostly Cloudy,190,2013-07-18 17:53:00
1:53 PM,82.0,71.1,69,29.72,10.0,West,6.9,-,N/A,,Mostly Cloudy,260,2013-07-18 18:53:00
2:53 PM,84.0,70.0,63,29.70,10.0,WSW,4.6,-,N/A,,Scattered Clouds,250,2013-07-18 19:53:00
3:53 PM,86.0,71.1,61,29.68,10.0,Variable,3.5,-,N/A,,Scattered Clouds,0,2013-07-18 20:53:00
4:53 PM,86.0,73.0,65,29.67,10.0,North,6.9,-,N/A,,Scattered Clouds,350,2013-07-18 21:53:00
5:53 PM,86.0,73.0,65,29.65,10.0,WNW,6.9,-,N/A,,Scattered Clouds,290,2013-07-18 22:53:00
6:53 PM,84.9,72.0,65,29.63,10.0,WNW,9.2,-,N/A,,Scattered Clouds,300,2013-07-18 23:53:00
7:53 PM,82.9,72.0,69,29.64,10.0,WNW,6.9,-,N/A,,Partly Cloudy,290,2013-07-19 00:53:00
8:53 PM,79.0,70.0,74,29.65,10.0,WNW,8.1,-,N/A,,Partly Cloudy,290,2013-07-19 01:53:00
9:53 PM,73.9,69.1,85,29.65,10.0,West,4.6,-,N/A,,Partly Cloudy,280,2013-07-19 02:53:00
10:53 PM,71.1,68.0,90,29.65,10.0,SW,5.8,-,N/A,,Partly Cloudy,220,2013-07-19 03:53:00
11:53 PM,73.0,66.0,79,29.65,10.0,NNW,4.6,-,N/A,,Scattered Clouds,330,2013-07-19 04:53:00